This demonstration page uses our WeatherBlox Daily Observations layout. Learn more.

Left ArrowRight Arrow

Hourly Observations for March 27, 2019

Temp ( °F °C ) Dew Point ( °F °C ) Humidity (%) Winds ( mph kmh ) Pressure ( in mb ) Visibility ( mi km ) Precip ( " mm )
12:52 am 00:52 Cloudy 52 11.1 41 5 66 66 SSE 12 19 30.14 1021 10 16 0.00 0.00
1:52 am 01:52 Cloudy 53 11.7 40 4.4 61 61 S 15 24 30.12 1020 10 16 0.00 0.00
2:52 am 02:52 Cloudy 53 11.7 39 3.9 59 59 S 16 26 30.11 1020 10 16 0.00 0.00
3:52 am 03:52 Cloudy 52 11.1 39 3.9 61 61 S 15 24 30.09 1019 10 16 0.00 0.00
4:52 am 04:52 Cloudy 52 11.1 40 4.4 64 64 S 17 28 30.06 1018 10 16 0.00 0.00
5:52 am 05:52 Mostly Clear 51 10.6 39 3.9 64 64 S 16 26 30.05 1018 10 16 0.00 0.00
6:52 am 06:52 Partly Cloudy 52 11.1 40 4.4 64 64 S 18 30 30.04 1017 10 16 0.00 0.00
7:52 am 07:52 Partly Cloudy 51 10.6 41 5 69 69 S 20 31 30.03 1017 10 16 0.00 0.00
8:52 am 08:52 Partly Cloudy 53 11.7 41 5 64 64 SSE 21 33 30.01 1016 10 16 0.00 0.00
9:52 am 09:52 Mostly Cloudy 60 15.6 40 4.4 47 47 S 21 33 29.98 1015 10 16 0.00 0.00
10:52 am 10:52 Mostly Cloudy 62 16.7 40 4.4 44 44 S 22 35 29.99 1016 10 16 0.00 0.00
11:52 am 11:52 Mostly Cloudy 68 20 42 5.6 39 39 S 18 30 29.96 1014 10 16 0.00 0.00
12:52 pm 12:52 Mostly Cloudy 70 21.1 43 6.1 38 38 SSW 21 33 29.93 1013 10 16 0.00 0.00
1:52 pm 13:52 Mostly Cloudy 72 22.2 44 6.7 37 37 SSW 24 39 29.90 1012 10 16 0.00 0.00
2:52 pm 14:52 Mostly Cloudy 73 22.8 45 7.2 37 37 SSW 21 33 29.88 1012 10 16 0.00 0.00
3:52 pm 15:52 Mostly Cloudy 75 23.9 46 7.8 36 36 SSW 17 28 29.85 1011 10 16 0.00 0.00
4:52 pm 16:52 Mostly Cloudy 74 23.3 47 8.3 38 38 SW 17 28 29.85 1011 10 16 0.00 0.00
5:52 pm 17:52 Mostly Cloudy 75 23.9 48 8.9 39 39 SSW 13 20 29.83 1010 10 16 0.00 0.00
6:52 pm 18:52 Mostly Cloudy 73 22.8 48 8.9 41 41 WSW 7 11 29.85 1011 10 16 0.00 0.00
7:52 pm 19:52 Mostly Cloudy 70 21.1 48 8.9 46 46 Calm 29.86 1011 10 16 0.00 0.00
8:52 pm 20:52 Mostly Cloudy 64 17.8 50 10 60 60 SE 6 9 29.88 1012 10 16 0.00 0.00
9:52 pm 21:52 Mostly Cloudy 63 17.2 51 10.6 65 65 N 7 11 29.91 1013 10 16 0.00 0.00
10:52 pm 22:52 Partly Cloudy 55 12.8 49 9.4 80 80 NNW 8 13 29.91 1013 10 16 0.00 0.00
11:52 pm 23:52 Mostly Clear 57 13.9 50 10 78 78 N 7 11 29.91 1013 10 16 0.00 0.00

Powered by AerisWeather